Find Starlink 32694

NORAD ID: 62494 Int'l Des: 2025-003 Owner: SPXS Country: US Constellation: starlink operational
LEOCIRCULAR

实时位置

正在加载3D地球...

关于 Starlink 32694

正在加载描述...

即将过境

Passes for default location (London). Set your location on the main map for personalized predictions.

高度历史

Loading altitude history...

两行轨道根数

1 62494U 25003H 26124.58794659 .00032350 00000-0 11786-2 0 9991
2 62494 42.9991 333.0108 0001156 272.4864 87.5855 15.27616138 75229
Epoch: May 4, 2026 • Age: 15 hours

当前状态

高度 492.5 km
速度 7.62 km/s
星下点 -35.67°S, 102.79°W
发射日期 Jan 6, 2025
运行时间 1.3 years
类型 internet

技术详情

分类 Payload
质量 730.00 kg
干质量 700.00 kg
总质量 730.00 kg
长度 0.30 m
直径 4.10 m
跨度 29.00 m
形状 Box + pan
制造商 SPXS
平台类型 Starlink V2M
阶段状态 In Orbit
所有者/国家 SPXS/US

Most Searched